Brookings, OR

8:55 PM PST on February 08, 2016 (GMT -0800)
Brookings State

Weather History for KBOK - September, 2014

Change the Weather History Date:

Thursday, September 4, 2014

  Actual Average Record
Temperature  
Mean Temperature 76 °F -  
Max Temperature 93 °F 69 °F 93 °F (2014)
Min Temperature 57 °F 52 °F 44 °F (2011)
Cooling Degree Days 11    
Growing Degree Days 26 (Base 50)    
Moisture  
Dew Point 37 °F    
Average Humidity 30    
Maximum Humidity 75    
Minimum Humidity 8    
Precipitation  
Precipitation 0.00 in - - ()
Sea Level Pressure  
Sea Level Pressure 29.78 in    
Wind  
Wind Speed 8 mph (NE)    
Max Wind Speed 14 mph    
Max Gust Speed 23 mph    
Visibility 10 miles    
Events      
Averages and records for this station are not official NWS values.
T = Trace of Precipitation, MM = Missing Value Source: NWS Daily Summary

Daily Weather History Graph

Daily Weather History Graph

Search for Another Location

Airport or City:

Trip Planner

Search our weather history database for the weather conditions in past years. The results will help you decide how hot, cold, wet, or windy it might be!

Date:

Astronomy

Sep. 04, 2014 Rise Set
Actual Time 6:45 AM PDT 7:45 PM PDT
Civil Twilight 6:17 AM PDT 8:13 PM PDT
Nautical Twilight 5:43 AM PDT 8:47 PM PDT
Astronomical Twilight 5:07 AM PDT 9:23 PM PDT
Moon 4:31 PM PDT (9/4) 1:39 AM PDT (9/4)
Length of Visible Light 13h 56m
Length of Day
12h 59m
Waxing Gibbous, 75% of the Moon is Illuminated
Sep 4
Waxing Gibbous
Sep 8
Full
Sep 15
Last Quarter
Sep 23
New
Oct 1
First Quarter

Hourly Weather History & Observations

Time (PDT) Temp. Dew Point Humidity Pressure Visibility Wind Dir Wind Speed Gust Speed Precip Events Conditions
12:56 AM 72.9 °F 36.9 °F 27% 29.82 in 10.0 mi NE 12.7 mph 21.9 mph N/A   Clear
1:56 AM 72.9 °F 36.9 °F 27% 29.81 in 10.0 mi NE 13.8 mph 23.0 mph N/A   Clear
2:56 AM 72.9 °F 36.9 °F 27% 29.80 in 10.0 mi North 11.5 mph 20.7 mph N/A   Clear
3:56 AM 72.9 °F 36.9 °F 27% 29.79 in 10.0 mi NNW 11.5 mph 21.9 mph N/A   Clear
4:56 AM 72.9 °F 37.9 °F 28% 29.79 in 10.0 mi Variable 3.5 mph - N/A   Clear
6:56 AM 63.9 °F 41.0 °F 43% 29.81 in 10.0 mi Variable 3.5 mph - N/A   Clear
7:56 AM 72.0 °F 37.9 °F 29% 29.81 in 10.0 mi Variable 5.8 mph - N/A   Clear
8:56 AM 75.9 °F 36.0 °F 23% 29.81 in 10.0 mi NNE 9.2 mph - N/A   Clear
9:56 AM 79.0 °F 34.9 °F 20% 29.81 in 10.0 mi NNE 9.2 mph - N/A   Clear
10:56 AM 83.8 °F 34.0 °F 17% 29.81 in 10.0 mi Variable 3.5 mph - N/A   Clear
11:56 AM 86.9 °F 32.0 °F 14% 29.79 in 10.0 mi Variable 4.6 mph - N/A   Clear
12:56 PM 90.0 °F 27.1 °F 10% 29.78 in 10.0 mi Variable 6.9 mph - N/A   Clear
1:56 PM 90.9 °F 25.2 °F 9% 29.76 in 10.0 mi ENE 9.2 mph - 0.00 in   Clear
2:56 PM 93.9 °F 26.1 °F 9% 29.75 in 10.0 mi Variable 5.8 mph - N/A   Clear
3:56 PM 93.9 °F 25.2 °F 8% 29.73 in 10.0 mi Variable 4.6 mph - N/A   Clear
4:56 PM 93.9 °F 28.0 °F 10% 29.72 in 10.0 mi Variable 5.8 mph - N/A   Clear
5:56 PM 90.9 °F 45.0 °F 20% 29.72 in 10.0 mi Variable 3.5 mph - N/A   Clear
6:56 PM 86.0 °F 39.9 °F 20% 29.72 in 10.0 mi Calm Calm - N/A   Clear
8:56 PM 59.9 °F 50.9 °F 72% 29.77 in 8.0 mi SE 3.5 mph - N/A   Clear
9:56 PM 59.0 °F 50.0 °F 72% 29.78 in 8.0 mi Calm Calm - N/A   Clear
10:56 PM 59.0 °F 50.0 °F 72% 29.78 in 9.0 mi Calm Calm - N/A   Clear
11:56 PM 57.9 °F 50.0 °F 75% 29.79 in 9.0 mi Calm Calm - N/A   Clear